| time (UTC) | temp F | wind direction | speed MPH | gust MPH | rain 1hr in | rain 24hr in | rain mn in | humidity % | barometer mb |
| 20260504185755 | 66 | 311 | 6.0 | 10.0 | 0.00 | 0.00 | 0.00 | 47 | 1003.3 |
| 20260504185252 | 66 | 291 | 11.0 | 14.0 | 0.00 | 0.00 | 0.00 | 46 | 1003.3 |
| 20260504184748 | 66 | 319 | 7.0 | 9.0 | 0.00 | 0.00 | 0.00 | 47 | 1003.5 |
| 20260504184244 | 66 | 327 | 5.0 | 8.0 | 0.00 | 0.00 | 0.00 | 47 | 1003.6 |
| 20260504183740 | 64 | 341 | 5.0 | 17.0 | 0.00 | 0.00 | 0.00 | 49 | 1003.5 |
| 20260504183237 | 66 | 21 | 6.0 | 8.0 | 0.00 | 0.00 | 0.00 | 50 | 1003.7 |
| 20260504182735 | 67 | 69 | 2.0 | 3.0 | 0.00 | 0.00 | 0.00 | 48 | 1004.0 |
| 20260504182232 | 65 | 114 | 0.0 | 2.0 | 0.00 | 0.00 | 0.00 | 51 | 1003.9 |
| 20260504181730 | 64 | 131 | 3.0 | 6.0 | 0.00 | 0.00 | 0.00 | 51 | 1004.0 |
| 20260504181227 | 64 | 241 | 2.0 | 3.0 | 0.00 | 0.00 | 0.00 | 52 | 1003.7 |
| 20260504180726 | 62 | 241 | 1.0 | 5.0 | 0.00 | 0.00 | 0.00 | 53 | 1003.9 |
| 20260504180225 | 62 | 241 | 1.0 | 8.0 | 0.00 | 0.00 | 0.00 | 56 | 1004.1 |
| 20260504175722 | 62 | 242 | 7.0 | 10.0 | 0.00 | 0.00 | 0.00 | 55 | 1004.2 |
| 20260504175218 | 62 | 242 | 1.0 | 1.0 | 0.00 | 0.00 | 0.00 | 55 | 1004.2 |
| 20260504174716 | 60 | 241 | 1.0 | 5.0 | 0.00 | 0.00 | 0.00 | 54 | 1004.2 |
| 20260504174214 | 60 | 241 | 5.0 | 8.0 | 0.00 | 0.00 | 0.00 | 54 | 1004.5 |
| 20260504173710 | 59 | 242 | 0.0 | 3.0 | 0.00 | 0.00 | 0.00 | 57 | 1004.5 |
| 20260504173208 | 59 | 242 | 6.0 | 10.0 | 0.00 | 0.00 | 0.00 | 54 | 1004.6 |
| 20260504172704 | 60 | 242 | 2.0 | 6.0 | 0.00 | 0.00 | 0.00 | 55 | 1004.6 |
| 20260504172200 | 59 | 242 | 6.0 | 10.0 | 0.00 | 0.00 | 0.00 | 55 | 1004.5 |
| 20260504171657 | 59 | 241 | 16.0 | 18.0 | 0.00 | 0.00 | 0.00 | 54 | 1004.4 |
| 20260504171154 | 60 | 235 | 7.0 | 8.0 | 0.00 | 0.00 | 0.00 | 54 | 1004.5 |
| 20260504170650 | 60 | 235 | 9.0 | 18.0 | 0.00 | 0.00 | 0.00 | 54 | 1004.1 |
| 20260504170148 | 60 | 234 | 11.0 | 13.0 | 0.00 | 0.00 | 0.00 | 53 | 1004.1 |
| 20260504160106 | 60 | 245 | 2.0 | 6.0 | 0.00 | 0.00 | 0.00 | 52 | 1003.8 |
| 20260504151028 | 59 | 245 | 4.0 | 6.0 | 0.00 | 0.00 | 0.00 | 50 | 1004.0 |
| 20260504150525 | 59 | 244 | 10.0 | 15.0 | 0.00 | 0.00 | 0.00 | 51 | 1004.1 |
| 20260504140951 | 57 | 124 | 1.0 | 1.0 | 0.00 | 0.00 | 0.00 | 56 | 1004.7 |
| 20260504140447 | 59 | 124 | 4.0 | 6.0 | 0.00 | 0.00 | 0.00 | 55 | 1004.6 |
| 20260504130412 | 52 | 1 | 1.0 | 2.0 | 0.00 | 0.00 | 0.00 | 72 | 1005.7 |
| 20260504110259 | 35 | 1 | 2.0 | 2.0 | 0.00 | 0.00 | 0.00 | 94 | 1006.6 |
| 20260504100217 | 34 | 2 | 0.0 | 0.0 | 0.00 | 0.00 | 0.00 | 95 | 1006.5 |
| 20260504090140 | 33 | 2 | 0.0 | 0.0 | 0.00 | 0.00 | 0.00 | 95 | 1006.3 |
| 20260504081610 | 33 | 4 | 0.0 | 0.0 | 0.00 | 0.00 | 0.00 | 95 | 1006.5 |
| 20260504081106 | 33 | 4 | 2.0 | 2.0 | 0.00 | 0.00 | 0.00 | 95 | 1006.7 |
| 20260504080603 | 33 | 4 | 0.0 | 1.0 | 0.00 | 0.00 | 0.00 | 95 | 1006.7 |
| 20260504050415 | 29 | 336 | 0.0 | 0.0 | 0.00 | 0.00 | 0.00 | 98 | 1006.4 |
| 20260504045912 | 29 | 336 | 1.0 | 1.0 | 0.00 | 0.00 | 0.00 | 98 | 1006.5 |
| 20260504045408 | 29 | 336 | 1.0 | 1.0 | 0.00 | 0.00 | 0.00 | 98 | 1006.4 |
| 20260504044905 | 29 | 336 | 0.0 | 1.0 | 0.00 | 0.00 | 0.00 | 98 | 1006.4 |
| 20260504044402 | 29 | 336 | 1.0 | 1.0 | 0.00 | 0.00 | 0.00 | 97 | 1006.5 |
| 20260504043900 | 29 | 336 | 0.0 | 1.0 | 0.00 | 0.00 | 0.00 | 97 | 1006.4 |
| 20260504043356 | 29 | 336 | 0.0 | 1.0 | 0.00 | 0.00 | 0.00 | 97 | 1006.5 |
| 20260504042854 | 29 | 336 | 0.0 | 2.0 | 0.00 | 0.00 | 0.00 | 97 | 1006.6 |
| 20260504042350 | 29 | 336 | 0.0 | 1.0 | 0.00 | 0.00 | 0.00 | 97 | 1006.5 |
| 20260504041846 | 29 | 336 | 1.0 | 1.0 | 0.00 | 0.00 | 0.00 | 97 | 1006.4 |
| 20260504041343 | 30 | 336 | 0.0 | 0.0 | 0.00 | 0.00 | 0.00 | 97 | 1006.5 |
| 20260504040839 | 30 | 336 | 0.0 | 1.0 | 0.00 | 0.00 | 0.00 | 97 | 1006.5 |
| 20260504040337 | 30 | 336 | 0.0 | 1.0 | 0.00 | 0.00 | 0.00 | 96 | 1006.1 |
| 20260504035832 | 30 | 336 | 0.0 | 0.0 | 0.00 | 0.01 | 0.01 | 96 | 1006.4 |
| 20260504035330 | 30 | 336 | 0.0 | 1.0 | 0.00 | 0.01 | 0.01 | 96 | 1006.1 |
| 20260504034827 | 29 | 336 | 0.0 | 1.0 | 0.00 | 0.01 | 0.01 | 95 | 1006.3 |
| 20260504034324 | 30 | 336 | 2.0 | 2.0 | 0.00 | 0.01 | 0.01 | 95 | 1006.2 |
| 20260504033821 | 31 | 336 | 0.0 | 1.0 | 0.00 | 0.01 | 0.01 | 95 | 1006.5 |
| 20260504033319 | 30 | 336 | 1.0 | 2.0 | 0.00 | 0.01 | 0.01 | 95 | 1006.1 |
| 20260504032815 | 31 | 336 | 0.0 | 1.0 | 0.00 | 0.01 | 0.01 | 94 | 1006.3 |
| 20260504032313 | 31 | 336 | 0.0 | 1.0 | 0.00 | 0.01 | 0.01 | 94 | 1006.3 |
| 20260504031809 | 31 | 336 | 1.0 | 2.0 | 0.00 | 0.01 | 0.01 | 93 | 1006.2 |
| 20260504031307 | 32 | 336 | 1.0 | 1.0 | 0.00 | 0.01 | 0.01 | 93 | 1006.3 |
| 20260504030803 | 32 | 336 | 1.0 | 1.0 | 0.00 | 0.01 | 0.01 | 92 | 1006.3 |
| 20260504030300 | 32 | 336 | 0.0 | 1.0 | 0.00 | 0.01 | 0.01 | 91 | 1006.2 |
| 20260504025756 | 32 | 336 | 0.0 | 0.0 | 0.00 | 0.01 | 0.01 | 91 | 1006.1 |
| 20260504025253 | 33 | 336 | 0.0 | 0.0 | 0.00 | 0.01 | 0.01 | 90 | 1006.3 |
| 20260504024750 | 33 | 336 | 0.0 | 0.0 | 0.00 | 0.01 | 0.01 | 89 | 1006.1 |
| 20260504024247 | 33 | 336 | 0.0 | 1.0 | 0.00 | 0.01 | 0.01 | 90 | 1006.2 |
| 20260504023744 | 33 | 336 | 0.0 | 1.0 | 0.00 | 0.01 | 0.01 | 88 | 1006.0 |
| 20260504023240 | 34 | 336 | 0.0 | 1.0 | 0.00 | 0.01 | 0.01 | 88 | 1006.1 |
| 20260504022736 | 33 | 336 | 1.0 | 1.0 | 0.00 | 0.01 | 0.01 | 88 | 1006.2 |
| 20260504022232 | 33 | 336 | 1.0 | 2.0 | 0.00 | 0.01 | 0.01 | 88 | 1006.5 |
| 20260504021729 | 35 | 336 | 1.0 | 1.0 | 0.00 | 0.01 | 0.01 | 87 | 1006.6 |
| 20260504021227 | 35 | 336 | 1.0 | 1.0 | 0.00 | 0.01 | 0.01 | 86 | 1006.4 |
| 20260504020723 | 35 | 336 | 1.0 | 1.0 | 0.00 | 0.01 | 0.01 | 85 | 1006.3 |
| 20260504020220 | 35 | 336 | 0.0 | 1.0 | 0.00 | 0.01 | 0.01 | 84 | 1006.2 |
| 20260504015716 | 35 | 336 | 0.0 | 0.0 | 0.00 | 0.01 | 0.01 | 84 | 1006.3 |
| 20260504015213 | 36 | 336 | 0.0 | 1.0 | 0.00 | 0.01 | 0.01 | 83 | 1006.6 |
| 20260504014708 | 36 | 336 | 1.0 | 1.0 | 0.00 | 0.01 | 0.01 | 81 | 1006.3 |
| 20260504014205 | 36 | 336 | 0.0 | 1.0 | 0.00 | 0.01 | 0.01 | 81 | 1006.3 |
| 20260504013703 | 37 | 336 | 0.0 | 1.0 | 0.00 | 0.01 | 0.01 | 80 | 1006.1 |
| 20260504013200 | 37 | 336 | 1.0 | 3.0 | 0.00 | 0.01 | 0.01 | 81 | 1006.2 |
| 20260504012657 | 36 | 336 | 0.0 | 1.0 | 0.00 | 0.01 | 0.01 | 82 | 1006.3 |
| 20260504012155 | 38 | 336 | 0.0 | 1.0 | 0.00 | 0.01 | 0.01 | 78 | 1006.3 |
| 20260504011652 | 37 | 336 | 0.0 | 2.0 | 0.00 | 0.01 | 0.01 | 79 | 1006.1 |
| 20260504011148 | 37 | 336 | 1.0 | 3.0 | 0.00 | 0.01 | 0.01 | 80 | 1006.0 |
| 20260504010644 | 38 | 336 | 2.0 | 3.0 | 0.00 | 0.01 | 0.01 | 78 | 1006.0 |
| 20260504010140 | 39 | 336 | 2.0 | 2.0 | 0.00 | 0.01 | 0.01 | 75 | 1006.0 |
| 20260504005637 | 39 | 336 | 2.0 | 2.0 | 0.00 | 0.01 | 0.01 | 74 | 1005.9 |
| 20260504005133 | 40 | 336 | 3.0 | 3.0 | 0.00 | 0.01 | 0.01 | 74 | 1005.8 |
| 20260504004632 | 43 | 335 | 0.0 | 1.0 | 0.00 | 0.01 | 0.01 | 65 | 1005.8 |
| 20260504004129 | 45 | 335 | 3.0 | 5.0 | 0.00 | 0.01 | 0.01 | 58 | 1005.6 |
| 20260504003625 | 45 | 335 | 2.0 | 3.0 | 0.00 | 0.01 | 0.01 | 57 | 1005.5 |
| 20260504003121 | 45 | 335 | 2.0 | 3.0 | 0.00 | 0.01 | 0.01 | 58 | 1005.6 |
| 20260504002618 | 46 | 335 | 2.0 | 3.0 | 0.00 | 0.01 | 0.01 | 56 | 1005.4 |
| 20260504002116 | 46 | 335 | 3.0 | 5.0 | 0.00 | 0.01 | 0.01 | 56 | 1005.5 |
| 20260504001614 | 46 | 334 | 3.0 | 3.0 | 0.00 | 0.01 | 0.01 | 56 | 1005.4 |
| 20260504001109 | 46 | 333 | 4.0 | 7.0 | 0.00 | 0.01 | 0.01 | 56 | 1005.5 |
| 20260504000607 | 46 | 332 | 5.0 | 7.0 | 0.00 | 0.01 | 0.01 | 55 | 1005.3 |
| 20260504000104 | 46 | 332 | 3.0 | 5.0 | 0.00 | 0.01 | 0.01 | 56 | 1005.5 |
| 20260503235603 | 46 | 332 | 3.0 | 6.0 | 0.00 | 0.01 | 0.01 | 54 | 1005.2 |
| 20260503235059 | 46 | 329 | 4.0 | 5.0 | 0.00 | 0.01 | 0.01 | 55 | 1005.2 |
| 20260503234557 | 46 | 333 | 4.0 | 5.0 | 0.00 | 0.01 | 0.01 | 55 | 1005.0 |
| 20260503234054 | 46 | 333 | 4.0 | 6.0 | 0.00 | 0.01 | 0.01 | 55 | 1005.2 |
| 20260503233551 | 47 | 333 | 4.0 | 5.0 | 0.00 | 0.01 | 0.01 | 54 | 1005.0 |
| 20260503233047 | 47 | 333 | 4.0 | 5.0 | 0.00 | 0.01 | 0.01 | 54 | 1005.1 |
| 20260503232544 | 47 | 333 | 4.0 | 5.0 | 0.00 | 0.01 | 0.01 | 54 | 1005.0 |
| 20260503232041 | 47 | 336 | 3.0 | 7.0 | 0.00 | 0.01 | 0.01 | 54 | 1004.9 |
| 20260503231539 | 48 | 337 | 5.0 | 6.0 | 0.00 | 0.01 | 0.01 | 53 | 1004.9 |
| 20260503231035 | 47 | 341 | 1.0 | 5.0 | 0.00 | 0.01 | 0.01 | 54 | 1005.0 |
| 20260503230532 | 48 | 348 | 5.0 | 10.0 | 0.00 | 0.01 | 0.01 | 52 | 1004.9 |
| 20260503230030 | 48 | 340 | 7.0 | 9.0 | 0.00 | 0.01 | 0.01 | 52 | 1005.2 |
| 20260503225527 | 48 | 1 | 13.0 | 17.0 | 0.00 | 0.01 | 0.01 | 52 | 1004.8 |
| 20260503225021 | 49 | 54 | 5.0 | 5.0 | 0.00 | 0.01 | 0.01 | 54 | 1004.9 |
| 20260503224519 | 48 | 12 | 4.0 | 8.0 | 0.00 | 0.01 | 0.01 | 53 | 1004.9 |
| 20260503224017 | 48 | 28 | 5.0 | 11.0 | 0.00 | 0.01 | 0.01 | 53 | 1004.8 |
| 20260503223515 | 48 | 331 | 5.0 | 13.0 | 0.00 | 0.01 | 0.01 | 53 | 1004.7 |
| 20260503223010 | 48 | 5 | 6.0 | 15.0 | 0.00 | 0.01 | 0.01 | 54 | 1004.9 |
| 20260503222508 | 48 | 99 | 9.0 | 21.0 | 0.00 | 0.01 | 0.01 | 53 | 1004.8 |
| 20260503222006 | 48 | 334 | 8.0 | 14.0 | 0.00 | 0.01 | 0.01 | 53 | 1004.5 |
| 20260503221504 | 48 | 311 | 10.0 | 16.0 | 0.00 | 0.01 | 0.01 | 53 | 1004.9 |
| 20260503221001 | 48 | 344 | 8.0 | 21.0 | 0.00 | 0.01 | 0.01 | 54 | 1004.7 |
| 20260503220457 | 48 | 44 | 9.0 | 10.0 | 0.00 | 0.01 | 0.01 | 53 | 1004.7 |
| 20260503215954 | 48 | 47 | 2.0 | 5.0 | 0.00 | 0.01 | 0.01 | 54 | 1004.7 |
| 20260503215451 | 48 | 35 | 5.0 | 9.0 | 0.00 | 0.01 | 0.01 | 53 | 1004.7 |
| 20260503214949 | 48 | 344 | 9.0 | 10.0 | 0.00 | 0.01 | 0.01 | 54 | 1004.6 |
| 20260503214447 | 48 | 355 | 9.0 | 11.0 | 0.00 | 0.01 | 0.01 | 54 | 1004.5 |
| 20260503213943 | 48 | 60 | 5.0 | 8.0 | 0.00 | 0.01 | 0.01 | 54 | 1004.5 |
| 20260503213442 | 48 | 52 | 1.0 | 7.0 | 0.00 | 0.01 | 0.01 | 54 | 1004.8 |
| 20260503212937 | 48 | 58 | 0.0 | 5.0 | 0.00 | 0.01 | 0.01 | 55 | 1004.9 |
| 20260503212435 | 48 | 59 | 3.0 | 9.0 | 0.00 | 0.01 | 0.01 | 55 | 1004.5 |
| 20260503211932 | 48 | 68 | 4.0 | 7.0 | 0.00 | 0.01 | 0.01 | 55 | 1004.7 |
| 20260503211429 | 48 | 56 | 4.0 | 13.0 | 0.00 | 0.01 | 0.01 | 55 | 1004.6 |
| 20260503210925 | 48 | 55 | 2.0 | 5.0 | 0.00 | 0.01 | 0.01 | 56 | 1004.6 |
| 20260503210422 | 48 | 53 | 3.0 | 6.0 | 0.00 | 0.01 | 0.01 | 54 | 1004.7 |
| 20260503205917 | 48 | 12 | 8.0 | 10.0 | 0.00 | 0.01 | 0.01 | 53 | 1004.4 |
| 20260503205414 | 48 | 38 | 5.0 | 9.0 | 0.00 | 0.01 | 0.01 | 51 | 1004.7 |
| 20260503204910 | 48 | 338 | 7.0 | 11.0 | 0.00 | 0.01 | 0.01 | 51 | 1004.3 |
| 20260503204408 | 48 | 17 | 10.0 | 15.0 | 0.00 | 0.01 | 0.01 | 51 | 1004.4 |
| 20260503203905 | 48 | 356 | 8.0 | 16.0 | 0.00 | 0.01 | 0.01 | 53 | 1004.4 |
| 20260503203402 | 48 | 319 | 11.0 | 18.0 | 0.00 | 0.01 | 0.01 | 51 | 1004.4 |
| 20260503202858 | 48 | 3 | 15.0 | 20.0 | 0.00 | 0.01 | 0.01 | 51 | 1004.4 |
| 20260503202357 | 48 | 339 | 13.0 | 26.0 | 0.00 | 0.01 | 0.01 | 50 | 1004.2 |
| 20260503201855 | 49 | 319 | 8.0 | 17.0 | 0.00 | 0.01 | 0.01 | 50 | 1004.2 |
| 20260503201352 | 50 | 31 | 10.0 | 31.0 | 0.00 | 0.01 | 0.01 | 49 | 1004.3 |
| 20260503200849 | 50 | 88 | 7.0 | 16.0 | 0.00 | 0.01 | 0.01 | 50 | 1004.1 |
| 20260503200345 | 48 | 30 | 4.0 | 13.0 | 0.00 | 0.01 | 0.01 | 50 | 1004.3 |
| 20260503195842 | 48 | 305 | 16.0 | 21.0 | 0.00 | 0.01 | 0.01 | 51 | 1004.2 |
| 20260503195338 | 48 | 302 | 12.0 | 17.0 | 0.00 | 0.01 | 0.01 | 52 | 1004.4 |
| 20260503194836 | 49 | 15 | 10.0 | 13.0 | 0.00 | 0.01 | 0.01 | 51 | 1004.3 |
| 20260503194332 | 48 | 93 | 10.0 | 13.0 | 0.00 | 0.01 | 0.01 | 51 | 1004.4 |
| 20260503193828 | 49 | 327 | 4.0 | 13.0 | 0.00 | 0.01 | 0.01 | 52 | 1004.1 |
| 20260503193324 | 49 | 51 | 6.0 | 14.0 | 0.00 | 0.01 | 0.01 | 53 | 1004.4 |
| 20260503192820 | 49 | 343 | 10.0 | 14.0 | 0.00 | 0.01 | 0.01 | 54 | 1004.2 |
| 20260503192316 | 48 | 312 | 8.0 | 13.0 | 0.00 | 0.01 | 0.01 | 53 | 1004.2 |
| 20260503191812 | 49 | 337 | 3.0 | 13.0 | 0.00 | 0.01 | 0.01 | 53 | 1004.1 |
| 20260503191310 | 49 | 340 | 13.0 | 23.0 | 0.00 | 0.01 | 0.01 | 52 | 1004.1 |
| 20260503190806 | 50 | 1 | 15.0 | 24.0 | 0.00 | 0.01 | 0.01 | 50 | 1004.3 |
| 20260503190303 | 50 | 299 | 13.0 | 25.0 | 0.00 | 0.01 | 0.01 | 53 | 1004.1 |